When you browse on this site, cookies collect data to enhance your experience and personalize the content and advertising you see.
Visit our Privacy Policy to learn more. By continuing to use the site, you agree to this use of cookies and data.

Hourly Weather Los Santos

Today, 4 July, Saturday

Time Temperature Precipitation Wind Pressure Humidity
00:00 +20°C° 0.6 mm 1 mps 648 mmHg 87%
01:00 +20°C° 0 mm 1 mps 648 mmHg 85%
02:00 +20°C° 0.5 mm 1 mps 648 mmHg 86%
03:00 +20°C° 0.5 mm 1 mps 648 mmHg 86%
04:00 +20°C° 0.5 mm 1 mps 648 mmHg 87%
05:00 +20°C° 0.4 mm 1 mps 648 mmHg 87%
06:00 +20°C° 0.4 mm 1 mps 649 mmHg 88%
07:00 +21°C° 0.4 mm 1 mps 649 mmHg 88%
08:00 +21°C° 0.4 mm 1 mps 649 mmHg 87%
09:00 +22°C° 0.4 mm 1 mps 650 mmHg 85%
10:00 +22°C° 0.4 mm 1 mps 650 mmHg 84%
11:00 +23°C° 0.2 mm 1 mps 650 mmHg 78%
12:00 +25°C° 0.2 mm 1 mps 650 mmHg 71%
13:00 +26°C° 0.2 mm 1 mps 650 mmHg 65%
14:00 +26°C° 0.2 mm 1 mps 649 mmHg 67%
15:00 +25°C° 0.2 mm 1 mps 648 mmHg 69%
16:00 +25°C° 0.2 mm 1 mps 648 mmHg 71%
17:00 +24°C° 0.5 mm 1 mps 648 mmHg 76%
18:00 +22°C° 0.5 mm 1 mps 647 mmHg 80%
19:00 +21°C° 0.5 mm 1 mps 647 mmHg 85%
20:00 +21°C° 0.5 mm 1 mps 648 mmHg 85%
21:00 +20°C° 0.5 mm 1 mps 648 mmHg 84%
22:00 +20°C° 0.5 mm 1 mps 649 mmHg 83%
23:00 +20°C° 0.2 mm 1 mps 649 mmHg 83%

Tomorrow, 5 July, Sunday

Time Temperature Precipitation Wind Pressure Humidity
00:00 +20°C° 0.2 mm 1 mps 649 mmHg 83%
01:00 +20°C° 0.2 mm 1 mps 649 mmHg 82%
02:00 +20°C° 0.3 mm 1 mps 648 mmHg 83%
03:00 +19°C° 0.3 mm 1 mps 648 mmHg 83%
04:00 +19°C° 0.3 mm 1 mps 647 mmHg 83%
05:00 +19°C° 0.1 mm 1 mps 648 mmHg 81%
06:00 +20°C° 0.1 mm 1 mps 649 mmHg 80%
07:00 +21°C° 0.1 mm 1 mps 649 mmHg 78%
08:00 +22°C° 0 mm 1 mps 650 mmHg 73%
09:00 +24°C° 0 mm 1 mps 650 mmHg 69%
10:00 +25°C° 0 mm 1 mps 651 mmHg 65%
11:00 +26°C° 0.2 mm 2 mps 650 mmHg 67%
12:00 +26°C° 0.2 mm 2 mps 649 mmHg 70%
13:00 +26°C° 0.2 mm 2 mps 649 mmHg 73%
14:00 +25°C° 0.6 mm 2 mps 648 mmHg 76%
15:00 +25°C° 0.6 mm 2 mps 648 mmHg 79%
16:00 +24°C° 0.6 mm 2 mps 647 mmHg 82%
17:00 +23°C° 1.3 mm 1 mps 647 mmHg 85%
18:00 +22°C° 1.3 mm 1 mps 648 mmHg 89%
19:00 +21°C° 1.3 mm 1 mps 648 mmHg 92%
20:00 +21°C° 0.3 mm 1 mps 648 mmHg 91%
21:00 +20°C° 0.3 mm 1 mps 649 mmHg 89%
22:00 +20°C° 0.3 mm 1 mps 649 mmHg 88%
23:00 +19°C° 0.2 mm 1 mps 649 mmHg 87%

Day after tomorrow, 6 July, Monday

Time Temperature Precipitation Wind Pressure Humidity
00:00 +19°C° 0.2 mm 1 mps 648 mmHg 86%
01:00 +19°C° 0.2 mm 1 mps 648 mmHg 84%
02:00 +19°C° 0.4 mm 1 mps 648 mmHg 83%
03:00 +18°C° 0.4 mm 1 mps 648 mmHg 81%
04:00 +18°C° 0.4 mm 1 mps 648 mmHg 80%
05:00 +19°C° 0 mm 1 mps 648 mmHg 79%
06:00 +20°C° 0 mm 1 mps 649 mmHg 78%
07:00 +20°C° 0 mm 1 mps 649 mmHg 78%
08:00 +22°C° 0.1 mm 1 mps 650 mmHg 74%
09:00 +23°C° 0.1 mm 1 mps 650 mmHg 71%
10:00 +25°C° 0.1 mm 1 mps 651 mmHg 68%
11:00 +25°C° 0.4 mm 1 mps 651 mmHg 70%
12:00 +25°C° 0.4 mm 2 mps 650 mmHg 73%
13:00 +25°C° 0.4 mm 2 mps 650 mmHg 76%
14:00 +24°C° 1.7 mm 2 mps 649 mmHg 82%
15:00 +23°C° 1.7 mm 1 mps 649 mmHg 87%
16:00 +22°C° 1.7 mm 1 mps 648 mmHg 93%
17:00 +22°C° 0.6 mm 1 mps 648 mmHg 93%
18:00 +19°C° 0.6 mm 0 mps 649 mmHg 92%
19:00 +19°C° 0.6 mm 0 mps 649 mmHg 92%
20:00 +19°C° 0.7 mm 0 mps 649 mmHg 92%
21:00 +19°C° 0.7 mm 0 mps 650 mmHg 91%
22:00 +19°C° 0.7 mm 0 mps 650 mmHg 90%
23:00 +18°C° 0.5 mm 0 mps 650 mmHg 91%

7 July, Tuesday

Time Temperature Precipitation Wind Pressure Humidity
00:00 +18°C° 0.5 mm 0 mps 649 mmHg 92%
01:00 +18°C° 0.5 mm 0 mps 649 mmHg 92%
02:00 +18°C° 0.4 mm 0 mps 649 mmHg 93%
03:00 +18°C° 0.4 mm 0 mps 648 mmHg 93%
04:00 +18°C° 0.4 mm 0 mps 648 mmHg 93%
05:00 +18°C° 0.2 mm 0 mps 649 mmHg 93%
06:00 +18°C° 0.2 mm 0 mps 649 mmHg 92%
07:00 +18°C° 0.2 mm 0 mps 649 mmHg 92%
08:00 +19°C° 0.2 mm 0 mps 650 mmHg 88%
09:00 +22°C° 0.2 mm 1 mps 650 mmHg 85%
10:00 +23°C° 0.2 mm 1 mps 651 mmHg 82%
11:00 +24°C° 0.9 mm 1 mps 650 mmHg 82%
12:00 +24°C° 0.9 mm 1 mps 650 mmHg 83%
13:00 +24°C° 0.9 mm 1 mps 649 mmHg 84%
14:00 +23°C° 1.9 mm 1 mps 649 mmHg 87%
15:00 +22°C° 1.9 mm 1 mps 648 mmHg 89%
16:00 +20°C° 1.9 mm 0 mps 648 mmHg 92%
17:00 +21°C° 0.2 mm 1 mps 648 mmHg 92%
18:00 +21°C° 0.2 mm 1 mps 648 mmHg 92%
19:00 +20°C° 0.2 mm 1 mps 648 mmHg 92%
20:00 +20°C° 0.1 mm 1 mps 649 mmHg 91%
21:00 +20°C° 0.1 mm 1 mps 649 mmHg 90%
22:00 +20°C° 0.1 mm 1 mps 649 mmHg 90%
23:00 +18°C° 0 mm 0 mps 649 mmHg 90%

8 July, Wednesday

Time Temperature Precipitation Wind Pressure Humidity
00:00 +18°C° 0 mm 0 mps 649 mmHg 90%
01:00 +17°C° 0 mm 0 mps 648 mmHg 90%
02:00 +17°C° 0 mm 0 mps 648 mmHg 90%
03:00 +17°C° 0 mm 0 mps 648 mmHg 90%
04:00 +17°C° 0 mm 0 mps 648 mmHg 90%
05:00 +17°C° 0 mm 0 mps 648 mmHg 89%
06:00 +18°C° 0 mm 0 mps 649 mmHg 87%
07:00 +20°C° 0 mm 1 mps 649 mmHg 86%
08:00 +22°C° 0 mm 1 mps 649 mmHg 81%
09:00 +23°C° 0 mm 1 mps 650 mmHg 76%
10:00 +25°C° 0 mm 1 mps 650 mmHg 71%
11:00 +25°C° 0.6 mm 1 mps 650 mmHg 73%
12:00 +25°C° 0.6 mm 2 mps 649 mmHg 74%
13:00 +25°C° 0.6 mm 2 mps 649 mmHg 75%
14:00 +25°C° 1.4 mm 2 mps 648 mmHg 77%
15:00 +25°C° 1.4 mm 2 mps 648 mmHg 79%
16:00 +24°C° 1.4 mm 2 mps 647 mmHg 81%
17:00 +23°C° 1.8 mm 1 mps 647 mmHg 84%
18:00 +22°C° 1.8 mm 1 mps 647 mmHg 88%
19:00 +21°C° 1.8 mm 1 mps 648 mmHg 91%
20:00 +21°C° 0.9 mm 1 mps 648 mmHg 90%
21:00 +20°C° 0.9 mm 1 mps 648 mmHg 90%
22:00 +20°C° 0.9 mm 1 mps 649 mmHg 89%
23:00 +20°C° 0.9 mm 1 mps 649 mmHg 89%

9 July, Thursday

Time Temperature Precipitation Wind Pressure Humidity
00:00 +19°C° 0.9 mm 1 mps 648 mmHg 88%
01:00 +19°C° 0.9 mm 1 mps 648 mmHg 88%
02:00 +19°C° 0.7 mm 1 mps 648 mmHg 88%
03:00 +19°C° 0.7 mm 1 mps 648 mmHg 88%
04:00 +18°C° 0.7 mm 1 mps 648 mmHg 88%
05:00 +19°C° 0.5 mm 1 mps 648 mmHg 87%
06:00 +20°C° 0.5 mm 1 mps 649 mmHg 86%
07:00 +20°C° 0.5 mm 1 mps 649 mmHg 86%
08:00 +22°C° 0.2 mm 1 mps 650 mmHg 81%
09:00 +23°C° 0.2 mm 1 mps 650 mmHg 76%
10:00 +25°C° 0.2 mm 1 mps 650 mmHg 71%
11:00 +25°C° 0.3 mm 1 mps 650 mmHg 72%
12:00 +25°C° 0.3 mm 2 mps 649 mmHg 72%
13:00 +26°C° 0.3 mm 2 mps 649 mmHg 73%
14:00 +25°C° 0.9 mm 2 mps 648 mmHg 76%
15:00 +25°C° 0.9 mm 2 mps 648 mmHg 78%
16:00 +25°C° 0.9 mm 2 mps 647 mmHg 81%
17:00 +24°C° 1.6 mm 2 mps 647 mmHg 83%
18:00 +22°C° 1.6 mm 1 mps 647 mmHg 86%
19:00 +21°C° 1.6 mm 1 mps 647 mmHg 89%
20:00 +21°C° 0.9 mm 1 mps 648 mmHg 87%
21:00 +20°C° 0.9 mm 1 mps 648 mmHg 86%
22:00 +20°C° 0.9 mm 1 mps 649 mmHg 84%
23:00 +18°C° 0.5 mm 2 mps 649 mmHg 84%
Show more